#timestamp,LO_Frequency,Hit 
1505408415.7,286047010.4,N
1505408435.5,286047007.7,N
1505408455.4,286047008.1,N
1505408475.2,286047007.8,N
1505408495.0,286047010.1,N
1505408495.9,286047010.1,N
1505408515.8,286047013.8,N
1505408535.6,286047011.5,N
1505408555.4,286047011.0,N
1505408575.2,286047013.8,N
1505408595.1,286047013.5,N
1505408596.0,286047013.5,N
1505408615.8,286047012.4,N
1505408635.6,286047011.9,N
1505408655.5,286047012.3,N
1505408675.3,286047011.1,N
1505408695.1,286047014.6,N
1505408715.9,286047016.2,N
1505408735.7,286047015.6,N
1505408755.5,286047014.4,N
1505408775.4,286047012.7,N
1505408795.2,286047015.7,N
1505408815.0,286047017.0,N
1505408815.9,286047017.0,N
1505408835.8,286047014.3,N
1505408855.6,286047017.0,N
1505408875.4,286047011.8,N
1505408895.3,286047013.0,P
1505408915.1,286047003.8,P
1505408916.0,286047003.8,N
1505408935.8,286047005.7,N
1505408955.7,286047006.0,N
1505408975.5,286047005.2,N
1505408995.3,286046999.8,N
1505409015.2,286047002.4,N
1505409035.9,286047000.3,N
1505409055.7,286047002.7,N
1505409075.5,286047002.8,N
1505409095.4,286047003.4,N
1505409115.2,286047007.1,N
1505409135.0,286047009.2,N
1505409135.9,286047009.2,N
1505409155.8,286047006.3,N
1505409175.6,286047004.8,N
1505409195.4,286047006.9,N
1505409215.3,286047007.6,N
1505409235.1,286047002.6,N
1505409236.0,286047002.6,N
1505409255.8,286047004.2,N
1505409275.7,286047002.9,N
1505409295.5,286047004.3,N
1505409315.3,286047003.1,N
1505409335.2,286047007.3,N
1505409355.9,286047009.0,N
1505409375.7,286047009.1,N
1505409395.5,286047008.5,N
1505409415.4,286047008.3,N
1505409435.2,286047010.8,P
1505409455.0,286047001.9,N
1505409456.0,286047001.9,N
1505409475.8,286047004.3,N
1505409495.6,286047000.2,N
1505409515.4,286047000.9,N
1505409535.3,286046999.7,N
1505409555.1,286047000.2,N
1505409575.8,286046997.0,N
1505409595.7,286046998.6,N
1505409615.5,286046999.2,N
1505409635.3,286046996.5,N
1505409655.2,286046996.9,N
1505409675.9,286046996.1,N
1505409695.7,286046996.7,N
1505409715.6,286046998.4,N
1505409735.4,286047000.4,N
1505409755.2,286046999.1,N
1505409775.0,286046998.9,N
1505409776.0,286046998.9,N
1505409795.8,286047001.1,N
1505409815.6,286047002.7,N
1505409835.4,286046998.6,N
1505409855.3,286046996.5,N
1505409875.1,286047001.2,N
1505409895.8,286047001.0,N
1505409915.7,286046995.0,N
1505409935.5,286046998.5,N
1505409955.3,286046998.4,N
1505409975.2,286046998.2,N
1505409995.9,286047001.2,N
1505410015.7,286047000.9,N
1505410035.6,286047000.9,N
1505410055.4,286047000.7,N
1505410075.2,286046999.0,N
1505410095.0,286047000.6,N
1505410096.0,286047000.6,N
1505410115.8,286047000.3,N
1505410135.6,286047000.8,N
1505410155.4,286047002.3,N
1505410175.3,286047001.9,N
1505410195.1,286047000.8,N
1505410215.8,286046999.4,N
1505410235.7,286046991.0,P
1505410255.5,286046986.3,P
1505410275.3,286046986.2,N
1505410295.2,286046989.1,N
1505410315.0,286046994.5,N
1505410315.9,286046994.5,N
1505410335.7,286046996.0,N
1505410355.6,286046996.3,N
1505410375.4,286046999.0,N
1505410395.2,286046999.5,N
1505410415.1,286046998.2,N
1505410416.0,286046998.2,N
1505410435.8,286047002.3,N
1505410455.6,286047001.0,N
1505410475.5,286046999.7,N
1505410495.3,286047002.2,N
1505410515.1,286047000.2,N
1505410535.9,286046999.8,N
1505410555.7,286046998.2,N
1505410575.5,286047001.9,N
1505410595.3,286047002.0,N
1505410615.2,286047002.7,N
1505410635.0,286046999.7,N
1505410635.9,286046999.7,N
1505410655.7,286046999.0,N
1505410675.6,286046998.1,N
1505410695.4,286047002.8,N
1505410715.2,286047003.9,N
1505410735.1,286047005.4,N
1505410736.0,286047005.4,N
1505410755.8,286047009.0,N
1505410775.6,286047010.4,N
1505410795.5,286047008.6,N
1505410815.3,286047012.0,N
1505410835.1,286047011.3,N
1505410855.9,286047009.7,N
1505410875.7,286047009.9,N
1505410895.5,286047009.2,N
1505410915.4,286047001.4,N
1505410935.2,286047001.4,N
1505410955.0,286047003.3,N
1505410955.9,286047003.3,N
1505410975.8,286047005.2,N
1505410995.6,286047004.7,N
1505411015.4,286047001.3,N
1505411035.2,286047003.0,N
1505411055.1,286047004.2,N
1505411056.0,286047004.2,N
1505411075.8,286047007.2,N
1505411095.6,286047008.9,N
1505411115.5,286047006.6,N
1505411135.3,286047006.5,N
1505411155.1,286047005.7,N
1505411175.9,286047007.1,N
1505411195.7,286047005.4,N
1505411215.5,286047004.3,N
1505411235.4,286047000.9,N
1505411255.2,286047000.8,N
1505411275.0,286047001.0,N
1505411275.9,286047001.0,N
1505411295.8,286047002.7,N
1505411315.6,286047002.1,N
1505411335.4,286046999.7,N
1505411355.3,286047004.1,N
1505411375.1,286047005.3,N
1505411376.0,286047005.3,N
1505411395.8,286047005.0,N
1505411415.7,286047005.9,N
1505411435.5,286047004.8,N
1505411455.3,286047005.1,N
1505411475.1,286047002.4,N
1505411495.9,286046998.6,N
1505411515.7,286046999.6,N
1505411535.5,286046995.3,N
1505411555.4,286046997.6,N
1505411575.2,286046999.1,N
1505411595.0,286046999.8,N
1505411595.9,286046999.8,N
1505411615.8,286047004.1,N
1505411635.6,286047003.4,N
1505411655.4,286047004.8,N
1505411675.3,286047006.7,N
1505411695.1,286047007.1,N
1505411696.0,286047007.1,N
1505411715.8,286047004.5,N
1505411735.7,286047005.7,N
1505411755.5,286047004.4,N
1505411775.3,286047002.2,N
1505411795.2,286047001.6,N
1505411815.9,286047002.7,N
1505411835.7,286046999.8,N
1505411855.5,286047001.6,N
1505411875.4,286047002.1,N
1505411895.2,286047004.2,N
1505411915.0,286047002.2,N
1505411915.9,286047002.2,N
1505411935.8,286047002.7,N
1505411955.6,286047000.5,N
1505411975.4,286047000.8,N
1505411995.3,286046998.1,N
